TimeCDT,TemperatureF,Dew PointF,Humidity,Sea Level PressureIn,VisibilityMPH,Wind Direction,Wind SpeedMPH,Gust SpeedMPH,PrecipitationIn,Events,Conditions,WindDirDegrees,DateUTC
12:14 AM,73.4,62.6,69,29.90,10.0,SSE,10.4,-,N/A,,Clear,160,2013-07-12 05:14:00
12:33 AM,73.4,62.6,69,29.90,10.0,SSE,10.4,-,N/A,,Clear,160,2013-07-12 05:33:00
12:53 AM,73.4,62.6,69,29.90,10.0,SSE,10.4,-,N/A,,Clear,160,2013-07-12 05:53:00
1:13 AM,73.4,62.6,69,29.90,10.0,SSE,10.4,-,N/A,,Clear,160,2013-07-12 06:13:00
1:34 AM,73.4,62.6,69,29.89,10.0,SSE,9.2,-,N/A,,Clear,160,2013-07-12 06:34:00
1:53 AM,73.4,62.6,69,29.88,10.0,South,11.5,17.3,N/A,,Clear,170,2013-07-12 06:53:00
2:13 AM,73.4,62.6,69,29.88,10.0,SSE,10.4,-,N/A,,Clear,160,2013-07-12 07:13:00
2:33 AM,73.4,62.6,69,29.88,10.0,SSE,10.4,-,N/A,,Clear,160,2013-07-12 07:33:00
2:54 AM,73.4,62.6,69,29.88,10.0,SSE,10.4,-,N/A,,Clear,160,2013-07-12 07:54:00
3:13 AM,73.4,62.6,69,29.88,10.0,South,11.5,18.4,N/A,,Clear,170,2013-07-12 08:13:00
3:34 AM,73.4,60.8,65,29.88,10.0,South,11.5,-,N/A,,Clear,170,2013-07-12 08:34:00
3:54 AM,73.4,60.8,65,29.87,10.0,South,10.4,-,N/A,,Clear,170,2013-07-12 08:54:00
4:13 AM,73.4,60.8,65,29.88,10.0,South,11.5,-,N/A,,Clear,170,2013-07-12 09:13:00
4:33 AM,71.6,60.8,69,29.88,10.0,South,9.2,-,N/A,,Clear,170,2013-07-12 09:33:00
4:53 AM,71.6,60.8,69,29.88,10.0,South,10.4,-,N/A,,Clear,170,2013-07-12 09:53:00
5:14 AM,71.6,60.8,69,29.88,10.0,South,10.4,-,N/A,,Clear,170,2013-07-12 10:14:00
5:33 AM,71.6,60.8,69,29.88,10.0,South,10.4,-,N/A,,Clear,170,2013-07-12 10:33:00
5:53 AM,71.6,60.8,69,29.88,10.0,South,10.4,-,N/A,,Clear,170,2013-07-12 10:53:00
6:13 AM,71.6,60.8,69,29.88,10.0,SSE,9.2,-,N/A,,Clear,160,2013-07-12 11:13:00
6:33 AM,71.6,60.8,69,29.88,10.0,SSE,9.2,-,N/A,,Clear,150,2013-07-12 11:33:00
6:53 AM,71.6,60.8,69,29.88,10.0,SSE,9.2,-,N/A,,Clear,150,2013-07-12 11:53:00
7:13 AM,71.6,60.8,69,29.88,10.0,SSE,10.4,-,N/A,,Clear,150,2013-07-12 12:13:00
7:33 AM,71.6,60.8,69,29.88,10.0,SSE,11.5,-,N/A,,Clear,150,2013-07-12 12:33:00
7:53 AM,73.4,60.8,65,29.88,10.0,SSE,10.4,17.3,N/A,,Clear,150,2013-07-12 12:53:00
8:13 AM,73.4,62.6,69,29.88,10.0,SSE,10.4,-,N/A,,Clear,160,2013-07-12 13:13:00
8:34 AM,75.2,62.6,65,29.87,10.0,SSE,10.4,17.3,N/A,,Clear,150,2013-07-12 13:34:00
8:54 AM,75.2,62.6,65,29.87,10.0,SSE,10.4,17.3,N/A,,Clear,160,2013-07-12 13:54:00
9:13 AM,78.8,62.6,57,29.86,10.0,SSE,15.0,-,N/A,,Clear,160,2013-07-12 14:13:00
9:33 AM,78.8,62.6,57,29.86,10.0,South,10.4,17.3,N/A,,Clear,180,2013-07-12 14:33:00
9:53 AM,80.6,62.6,54,29.86,10.0,South,12.7,19.6,N/A,,Clear,180,2013-07-12 14:53:00
10:13 AM,80.6,62.6,54,29.85,10.0,South,11.5,23.0,N/A,,Clear,170,2013-07-12 15:13:00
10:33 AM,82.4,62.6,51,29.85,10.0,South,17.3,24.2,N/A,,Clear,170,2013-07-12 15:33:00
10:54 AM,82.4,62.6,51,29.85,10.0,South,15.0,21.9,N/A,,Clear,170,2013-07-12 15:54:00
11:13 AM,84.2,64.4,51,29.84,10.0,South,11.5,21.9,N/A,,Clear,170,2013-07-12 16:13:00
11:33 AM,84.2,64.4,51,29.83,10.0,South,16.1,23.0,N/A,,Clear,170,2013-07-12 16:33:00
11:53 AM,86.0,64.4,48,29.83,10.0,SSE,15.0,25.3,N/A,,Clear,160,2013-07-12 16:53:00
12:14 PM,86.0,66.2,51,29.83,10.0,South,10.4,23.0,N/A,,Clear,170,2013-07-12 17:14:00
12:34 PM,87.8,66.2,49,29.82,10.0,SSE,17.3,26.5,N/A,,Clear,160,2013-07-12 17:34:00
12:54 PM,87.8,66.2,49,29.82,10.0,SSE,13.8,26.5,N/A,,Clear,160,2013-07-12 17:54:00
1:13 PM,89.6,66.2,46,29.82,10.0,South,17.3,26.5,N/A,,Clear,170,2013-07-12 18:13:00
1:33 PM,89.6,66.2,46,29.81,10.0,South,19.6,27.6,N/A,,Clear,170,2013-07-12 18:33:00
1:53 PM,89.6,68.0,49,29.81,10.0,South,16.1,24.2,N/A,,Clear,170,2013-07-12 18:53:00
2:13 PM,89.6,68.0,49,29.80,10.0,South,15.0,25.3,N/A,,Clear,170,2013-07-12 19:13:00
2:34 PM,89.6,68.0,49,29.80,10.0,South,18.4,25.3,N/A,,Clear,170,2013-07-12 19:34:00
2:53 PM,91.4,69.8,49,29.80,10.0,South,13.8,26.5,N/A,,Clear,170,2013-07-12 19:53:00
3:14 PM,91.4,69.8,49,29.79,10.0,South,15.0,25.3,N/A,,Clear,170,2013-07-12 20:14:00
3:34 PM,91.4,68.0,46,29.79,10.0,South,18.4,28.8,N/A,,Clear,170,2013-07-12 20:34:00
3:53 PM,91.4,69.8,49,29.78,10.0,South,18.4,25.3,N/A,,Clear,170,2013-07-12 20:53:00
4:13 PM,91.4,69.8,49,29.78,10.0,SSE,16.1,24.2,N/A,,Clear,160,2013-07-12 21:13:00
4:33 PM,91.4,69.8,49,29.78,10.0,South,18.4,26.5,N/A,,Clear,170,2013-07-12 21:33:00
4:53 PM,91.4,69.8,49,29.79,10.0,South,10.4,24.2,N/A,,Clear,170,2013-07-12 21:53:00
5:13 PM,91.4,69.8,49,29.79,10.0,South,13.8,26.5,N/A,,Clear,170,2013-07-12 22:13:00
5:33 PM,91.4,69.8,49,29.80,10.0,South,17.3,28.8,N/A,,Clear,180,2013-07-12 22:33:00
5:53 PM,91.4,69.8,49,29.79,10.0,South,10.4,23.0,N/A,,Clear,170,2013-07-12 22:53:00
6:14 PM,91.4,69.8,49,29.79,10.0,South,10.4,24.2,N/A,,Clear,170,2013-07-12 23:14:00
6:34 PM,89.6,71.6,55,29.79,10.0,SSE,9.2,-,N/A,,Clear,160,2013-07-12 23:34:00
6:53 PM,89.6,71.6,55,29.79,10.0,SSE,11.5,16.1,N/A,,Clear,160,2013-07-12 23:53:00
7:14 PM,89.6,71.6,55,29.79,10.0,SSE,8.1,-,N/A,,Clear,160,2013-07-13 00:14:00
7:34 PM,89.6,71.6,55,29.78,10.0,South,10.4,16.1,N/A,,Clear,170,2013-07-13 00:34:00
7:53 PM,87.8,69.8,55,29.79,10.0,South,9.2,-,N/A,,Clear,170,2013-07-13 00:53:00
8:13 PM,87.8,69.8,55,29.79,10.0,South,8.1,-,N/A,,Scattered Clouds,170,2013-07-13 01:13:00
8:33 PM,87.8,69.8,55,29.78,10.0,South,9.2,-,N/A,,Mostly Cloudy,170,2013-07-13 01:33:00
8:53 PM,86.0,69.8,58,29.77,10.0,South,10.4,17.3,N/A,,Scattered Clouds,170,2013-07-13 01:53:00
9:13 PM,84.2,69.8,62,29.78,10.0,South,9.2,-,N/A,,Scattered Clouds,170,2013-07-13 02:13:00
9:34 PM,84.2,69.8,62,29.78,10.0,South,8.1,-,N/A,,Mostly Cloudy,170,2013-07-13 02:34:00
9:53 PM,84.2,69.8,62,29.78,10.0,SSE,11.5,20.7,N/A,,Scattered Clouds,160,2013-07-13 02:53:00
10:13 PM,84.2,69.8,62,29.80,10.0,SSE,10.4,-,N/A,,Scattered Clouds,160,2013-07-13 03:13:00
10:33 PM,82.4,69.8,66,29.82,10.0,South,6.9,-,N/A,Rain,Light Rain,170,2013-07-13 03:33:00
10:53 PM,82.4,69.8,66,29.82,10.0,South,10.4,-,N/A,,Scattered Clouds,170,2013-07-13 03:53:00
11:14 PM,84.2,69.8,62,29.82,10.0,South,10.4,17.3,N/A,,Scattered Clouds,170,2013-07-13 04:14:00
11:33 PM,82.4,69.8,66,29.84,10.0,South,6.9,-,N/A,,Mostly Cloudy,180,2013-07-13 04:33:00
11:54 PM,84.2,69.8,62,29.83,10.0,South,11.5,16.1,N/A,,Mostly Cloudy,180,2013-07-13 04:54:00